Kitty C — 2EIQ6 — position and weather

sailwx.info

Track history (hours):
 
Tides and Currents Weather Stations Pressure Air Temp Water Temp Dewpoint Dewpoint Depression Visibility Wind Speed Wind Dir Waves Ship Positions

Kitty C

Last reported at 2014-Sep-03 01:32 UTC. Time now 2014-Sep-03 02:31 UTC.
Position N 54°26' E 013°42'.

Length 106 m; draft 4.5 m.

Type: Cargo ship. MMSI: 235085464.

Date/timePositionNaut miles runAvg speedWind from/ knotsBaromVisibWave heightAir tempDewpointWater temp
2014-Sep-03 01:32N 54°26' E 013°42'0 0.0
2014-Sep-03 00:32N 54°26' E 013°42'0 0.0
2014-Sep-02 23:32N 54°26' E 013°42'0 0.0
2014-Sep-02 22:29N 54°26' E 013°42'0 0.0
2014-Sep-02 21:32N 54°26' E 013°42'0 0.0
2014-Sep-02 20:32N 54°26' E 013°42'0 0.0
2014-Sep-02 19:32N 54°26' E 013°42'6 6.3
2014-Sep-02 18:33N 54°32' E 013°43'1110.7
2014-Sep-02 17:33N 54°41' E 013°34'1010.1
2014-Sep-02 16:33N 54°44' E 013°17'1110.7
2014-Sep-02 15:33N 54°43' E 012°58'1010.3
2014-Sep-02 14:33N 54°40' E 012°41'1110.5
2014-Sep-02 13:33N 54°34' E 012°26'1010.1
2014-Sep-02 12:33N 54°27' E 012°14'9 9.2
2014-Sep-02 11:33N 54°25' E 011°59'95 6.3
2014-Sep-01 20:33N 54°06' E 009°20'9 8.8
2014-Sep-01 19:33N 53°58' E 009°15'5 5.4
2014-Sep-01 18:34N 53°54' E 009°09'1 1.2
2014-Sep-01 17:28N 53°53' E 009°11'0 0.0
2014-Sep-01 16:31N 53°53' E 009°11'0 0.0
2014-Sep-01 15:31N 53°53' E 009°11'0 0.0
2014-Sep-01 14:28N 53°53' E 009°11'0 0.0
2014-Sep-01 13:31N 53°53' E 009°11'0 0.0
2014-Sep-01 12:31N 53°53' E 009°11'0 0.0
2014-Sep-01 11:31N 53°53' E 009°11'0 0.0
2014-Sep-01 10:31N 53°53' E 009°11'0 0.0
2014-Sep-01 09:31N 53°53' E 009°11'0 0.0
2014-Sep-01 08:31N 53°53' E 009°11'0 0.0
2014-Sep-01 07:31N 53°53' E 009°11'0 0.0
2014-Sep-01 06:31N 53°53' E 009°11'0 0.0
2014-Sep-01 05:31N 53°53' E 009°11'0 0.0
2014-Sep-01 04:31N 53°53' E 009°11'0 0.0
2014-Sep-01 03:31N 53°53' E 009°11'0 0.0
2014-Sep-01 02:31N 53°53' E 009°11'0 0.0
2014-Sep-01 01:31N 53°53' E 009°11'0 0.0
2014-Sep-01 00:31N 53°53' E 009°11'0 0.0
2014-Aug-31 23:31N 53°53' E 009°11'0 0.0
2014-Aug-31 22:31N 53°53' E 009°11'0 0.0
2014-Aug-31 21:31N 53°53' E 009°11'0 0.0
2014-Aug-31 20:31N 53°53' E 009°11'0 0.0
2014-Aug-31 19:31N 53°53' E 009°11'0 0.0
2014-Aug-31 18:31N 53°53' E 009°11'0 0.0
2014-Aug-31 17:28N 53°53' E 009°11'0 0.0
2014-Aug-31 16:31N 53°53' E 009°11'0 0.0
2014-Aug-31 15:31N 53°53' E 009°11'0 0.0
2014-Aug-31 14:28N 53°53' E 009°11'0 0.0
2014-Aug-31 13:28N 53°53' E 009°11'0 0.0
2014-Aug-31 12:31N 53°53' E 009°11'0 0.0
2014-Aug-31 11:31N 53°53' E 009°11'0 0.0
2014-Aug-31 10:31N 53°53' E 009°11'1 1.1
2014-Aug-31 09:33N 53°53' E 009°09'7 7.2
2014-Aug-31 08:34N 53°51' E 008°58'7 6.5
2014-Aug-31 07:33N 53°51' E 008°47'7 6.5
2014-Aug-31 06:33N 53°56' E 008°40'7 7.0
2014-Aug-31 05:31N 53°59' E 008°28'8 8.2
2014-Aug-31 04:31N 53°60' E 008°14'6 6.4
2014-Aug-31 03:33N 53°59' E 008°04'6 6.2
2014-Aug-31 02:30N 53°57' E 007°53'6 6.3
2014-Aug-31 01:30N 53°56' E 007°43'68 7.6
2014-Aug-30 16:29N 53°39' E 005°51'8 8.7
2014-Aug-30 15:33N 53°36' E 005°38'9 8.6
2014-Aug-30 14:34N 53°33' E 005°25'9 8.8
2014-Aug-30 13:34N 53°31' E 005°11'9 9.2
2014-Aug-30 12:34N 53°27' E 004°56'8 8.5
2014-Aug-30 11:33N 53°24' E 004°44'33 8.3
2014-Aug-30 07:33N 52°54' E 004°18'9 9.3
2014-Aug-30 06:33N 52°47' E 004°09'1010.1
2014-Aug-30 05:33N 52°38' E 003°60'1110.4
2014-Aug-30 04:32N 52°28' E 003°55'1010.0
2014-Aug-30 03:32N 52°18' E 003°52'9 9.1
2014-Aug-30 02:33N 52°10' E 003°54'8 7.7
2014-Aug-30 01:33N 52°02' E 003°55'1010.2
2014-Aug-30 00:33N 51°57' E 004°10'10 9.7
2014-Aug-29 23:33N 51°51' E 004°22'9 9.2
2014-Aug-29 22:33N 51°48' E 004°36'7 6.9
2014-Aug-29 21:33N 51°41' E 004°36'0 0.0
2014-Aug-29 20:24N 51°41' E 004°36'0 0.0
2014-Aug-29 19:18N 51°41' E 004°36'0 0.0
2014-Aug-29 18:33N 51°41' E 004°36'0 0.0
2014-Aug-29 13:24N 51°41' E 004°36'0 0.0
2014-Aug-29 12:30N 51°41' E 004°36'0 0.0
2014-Aug-29 11:18N 51°41' E 004°36'0 0.0
2014-Aug-29 10:33N 51°41' E 004°36'0 0.0
2014-Aug-29 09:24N 51°41' E 004°36'0 0.0
2014-Aug-29 08:33N 51°41' E 004°36'5 4.6
2014-Aug-29 07:34N 51°46' E 004°38'8 8.1
2014-Aug-29 06:34N 51°50' E 004°26'9 8.7
2014-Aug-29 05:34N 51°55' E 004°15'1110.6
2014-Aug-29 04:33N 51°60' E 003°60'9 9.5
2014-Aug-29 03:33N 52°04' E 003°46'4 1.5
2014-Aug-29 01:08N 52°08' E 003°44'0 0.0
2014-Aug-28 19:29N 52°08' E 003°44'0 0.0
2014-Aug-28 10:29N 52°08' E 003°44'0 0.0
2014-Aug-28 08:26N 52°08' E 003°43'0 0.0
2014-Aug-28 07:08N 52°08' E 003°44'0 0.0
2014-Aug-28 06:29N 52°08' E 003°44'0 0.0
2014-Aug-28 04:11N 52°08' E 003°44'0 0.0
2014-Aug-28 03:20N 52°08' E 003°44'0 0.0
2014-Aug-28 02:23N 52°08' E 003°44'0 0.0
2014-Aug-28 01:32N 52°08' E 003°44'0 0.1
2014-Aug-28 00:26N 52°08' E 003°43'0 0.0
2014-Aug-27 23:26N 52°08' E 003°44'0 0.0
2014-Aug-27 22:23N 52°08' E 003°44'0 0.0
2014-Aug-27 21:29N 52°08' E 003°44'0 0.0
2014-Aug-27 20:32N 52°08' E 003°44'0 0.0
2014-Aug-27 19:26N 52°08' E 003°44'0 0.0
2014-Aug-27 18:29N 52°08' E 003°44'0 0.1
2014-Aug-27 17:20N 52°08' E 003°44'0 0.0
2014-Aug-27 12:17N 52°08' E 003°44'0 0.0
2014-Aug-27 06:29N 52°08' E 003°43'2 1.8
2014-Aug-27 05:33N 52°09' E 003°43'8 8.3
2014-Aug-27 04:33N 52°17' E 003°47'8 8.0
2014-Aug-27 03:33N 52°25' E 003°50'7 7.1
2014-Aug-27 02:33N 52°31' E 003°55'9 8.9
2014-Aug-27 01:33N 52°31' E 004°09'1010.0
2014-Aug-27 00:33N 52°29' E 004°25'7 6.8
2014-Aug-26 23:33N 52°28' E 004°36'9 8.7
2014-Aug-26 22:34N 52°25' E 004°50'2 1.7
2014-Aug-26 21:32N 52°24' E 004°52'0 0.0
2014-Aug-26 20:32N 52°24' E 004°52'0 0.0
2014-Aug-26 19:32N 52°24' E 004°52'0 0.0
2014-Aug-26 18:29N 52°24' E 004°52'0 0.0
2014-Aug-26 17:32N 52°24' E 004°52'0 0.0
2014-Aug-26 16:29N 52°24' E 004°52'0 0.0
2014-Aug-26 15:32N 52°24' E 004°52'0 0.0
2014-Aug-26 14:32N 52°24' E 004°52'0 0.1
2014-Aug-26 13:32N 52°24' E 004°52'0 0.0
2014-Aug-26 12:32N 52°24' E 004°52'0 0.0
2014-Aug-26 11:32N 52°24' E 004°52'0 0.0
2014-Aug-26 10:29N 52°24' E 004°52'0 0.0
2014-Aug-26 09:33N 52°24' E 004°52'0 0.0
2014-Aug-26 08:31N 52°24' E 004°52'0 0.0
2014-Aug-26 07:31N 52°24' E 004°52'0 0.0
2014-Aug-26 06:31N 52°24' E 004°52'0 0.0
2014-Aug-26 05:31N 52°24' E 004°52'0 0.0
2014-Aug-26 04:31N 52°24' E 004°52'0 0.0
2014-Aug-26 03:33N 52°24' E 004°52'0 0.0
2014-Aug-26 02:33N 52°24' E 004°52'0 0.0
2014-Aug-26 01:33N 52°24' E 004°52'0 0.0
2014-Aug-26 00:33N 52°24' E 004°52'0 0.0
2014-Aug-25 23:33N 52°24' E 004°52'0 0.1
2014-Aug-25 22:33N 52°24' E 004°52'0 0.0
2014-Aug-25 21:33N 52°24' E 004°52'0 0.0
2014-Aug-25 20:30N 52°24' E 004°52'0 0.0
2014-Aug-25 19:30N 52°24' E 004°52'0 0.0
2014-Aug-25 18:33N 52°24' E 004°52'0 0.0
2014-Aug-25 17:33N 52°24' E 004°52'0 0.0
2014-Aug-25 16:33N 52°24' E 004°52'0 0.0
2014-Aug-25 15:33N 52°24' E 004°52'0 0.0
2014-Aug-25 14:33N 52°24' E 004°52'0 0.0
2014-Aug-25 13:33N 52°24' E 004°52'0 0.0
2014-Aug-25 12:33N 52°24' E 004°52'0 0.0
2014-Aug-25 11:33N 52°24' E 004°52'0 0.0
2014-Aug-25 10:33N 52°24' E 004°52'0 0.0
2014-Aug-25 09:30N 52°24' E 004°52'0 0.0
2014-Aug-25 08:33N 52°24' E 004°52'0 0.0
2014-Aug-25 07:33N 52°24' E 004°52'0 0.2
2014-Aug-25 06:33N 52°24' E 004°52'0 0.0
2014-Aug-25 05:33N 52°24' E 004°52'0 0.0
2014-Aug-25 04:33N 52°24' E 004°52'0 0.0
2014-Aug-25 03:33N 52°24' E 004°52'0 0.0
2014-Aug-25 02:33N 52°24' E 004°52'0 0.0
2014-Aug-25 01:33N 52°24' E 004°52'0 0.0
2014-Aug-25 00:33N 52°24' E 004°52'0 0.0
2014-Aug-24 23:33N 52°24' E 004°52'0 0.0
2014-Aug-24 22:33N 52°24' E 004°52'0 0.0
2014-Aug-24 21:33N 52°24' E 004°52'0 0.0
2014-Aug-24 20:33N 52°24' E 004°52'0 0.0
2014-Aug-24 19:33N 52°24' E 004°52'0 0.0
2014-Aug-24 18:33N 52°24' E 004°52'0 0.0
2014-Aug-24 17:33N 52°24' E 004°52'0 0.0
2014-Aug-24 16:33N 52°24' E 004°52'0 0.0
2014-Aug-24 15:33N 52°24' E 004°52'0 0.0
2014-Aug-24 14:30N 52°24' E 004°52'0 0.0
2014-Aug-24 13:33N 52°24' E 004°52'0 0.0
2014-Aug-24 12:33N 52°24' E 004°52'0 0.0
2014-Aug-24 11:33N 52°24' E 004°52'0 0.0
2014-Aug-24 10:30N 52°24' E 004°52'0 0.0
2014-Aug-24 09:33N 52°24' E 004°52'0 0.0
2014-Aug-24 08:33N 52°24' E 004°52'0 0.0
2014-Aug-24 07:33N 52°24' E 004°52'0 0.0
2014-Aug-24 06:33N 52°24' E 004°52'0 0.0
2014-Aug-24 05:33N 52°24' E 004°52'0 0.0
2014-Aug-24 04:33N 52°24' E 004°52'0 0.0
2014-Aug-24 03:33N 52°24' E 004°52'0 0.0
2014-Aug-24 02:33N 52°24' E 004°52'0 0.0
2014-Aug-24 01:33N 52°24' E 004°52'  
Track history (hours):
 
Tides and Currents Weather Stations Pressure Air Temp Water Temp Dewpoint Dewpoint Depression Visibility Wind Speed Wind Dir Waves Ship Positions

Kitty C

Last reported at 2014-Sep-03 01:32 UTC. Time now 2014-Sep-03 02:31 UTC.
Position N 54°26' E 013°42'.

Length 106 m; draft 4.5 m.

Type: Cargo ship. MMSI: 235085464.

Date/timePositionNaut miles runAvg speedWind from/ knotsBaromVisibWave heightAir tempDewpointWater temp
2014-Sep-03 01:32N 54°26' E 013°42'0 0.0
2014-Sep-03 00:32N 54°26' E 013°42'0 0.0
2014-Sep-02 23:32N 54°26' E 013°42'0 0.0
2014-Sep-02 22:29N 54°26' E 013°42'0 0.0
2014-Sep-02 21:32N 54°26' E 013°42'0 0.0
2014-Sep-02 20:32N 54°26' E 013°42'0 0.0
2014-Sep-02 19:32N 54°26' E 013°42'6 6.3
2014-Sep-02 18:33N 54°32' E 013°43'1110.7
2014-Sep-02 17:33N 54°41' E 013°34'1010.1
2014-Sep-02 16:33N 54°44' E 013°17'1110.7
2014-Sep-02 15:33N 54°43' E 012°58'1010.3
2014-Sep-02 14:33N 54°40' E 012°41'1110.5
2014-Sep-02 13:33N 54°34' E 012°26'1010.1
2014-Sep-02 12:33N 54°27' E 012°14'9 9.2
2014-Sep-02 11:33N 54°25' E 011°59'95 6.3
2014-Sep-01 20:33N 54°06' E 009°20'9 8.8
2014-Sep-01 19:33N 53°58' E 009°15'5 5.4
2014-Sep-01 18:34N 53°54' E 009°09'1 1.2
2014-Sep-01 17:28N 53°53' E 009°11'0 0.0
2014-Sep-01 16:31N 53°53' E 009°11'0 0.0
2014-Sep-01 15:31N 53°53' E 009°11'0 0.0
2014-Sep-01 14:28N 53°53' E 009°11'0 0.0
2014-Sep-01 13:31N 53°53' E 009°11'0 0.0
2014-Sep-01 12:31N 53°53' E 009°11'0 0.0
2014-Sep-01 11:31N 53°53' E 009°11'0 0.0
2014-Sep-01 10:31N 53°53' E 009°11'0 0.0
2014-Sep-01 09:31N 53°53' E 009°11'0 0.0
2014-Sep-01 08:31N 53°53' E 009°11'0 0.0
2014-Sep-01 07:31N 53°53' E 009°11'0 0.0
2014-Sep-01 06:31N 53°53' E 009°11'0 0.0
2014-Sep-01 05:31N 53°53' E 009°11'0 0.0
2014-Sep-01 04:31N 53°53' E 009°11'0 0.0
2014-Sep-01 03:31N 53°53' E 009°11'0 0.0
2014-Sep-01 02:31N 53°53' E 009°11'0 0.0
2014-Sep-01 01:31N 53°53' E 009°11'0 0.0
2014-Sep-01 00:31N 53°53' E 009°11'0 0.0
2014-Aug-31 23:31N 53°53' E 009°11'0 0.0
2014-Aug-31 22:31N 53°53' E 009°11'0 0.0
2014-Aug-31 21:31N 53°53' E 009°11'0 0.0
2014-Aug-31 20:31N 53°53' E 009°11'0 0.0
2014-Aug-31 19:31N 53°53' E 009°11'0 0.0
2014-Aug-31 18:31N 53°53' E 009°11'0 0.0
2014-Aug-31 17:28N 53°53' E 009°11'0 0.0
2014-Aug-31 16:31N 53°53' E 009°11'0 0.0
2014-Aug-31 15:31N 53°53' E 009°11'0 0.0
2014-Aug-31 14:28N 53°53' E 009°11'0 0.0
2014-Aug-31 13:28N 53°53' E 009°11'0 0.0
2014-Aug-31 12:31N 53°53' E 009°11'0 0.0
2014-Aug-31 11:31N 53°53' E 009°11'0 0.0
2014-Aug-31 10:31N 53°53' E 009°11'1 1.1
2014-Aug-31 09:33N 53°53' E 009°09'7 7.2
2014-Aug-31 08:34N 53°51' E 008°58'7 6.5
2014-Aug-31 07:33N 53°51' E 008°47'7 6.5
2014-Aug-31 06:33N 53°56' E 008°40'7 7.0
2014-Aug-31 05:31N 53°59' E 008°28'8 8.2
2014-Aug-31 04:31N 53°60' E 008°14'6 6.4
2014-Aug-31 03:33N 53°59' E 008°04'6 6.2
2014-Aug-31 02:30N 53°57' E 007°53'6 6.3
2014-Aug-31 01:30N 53°56' E 007°43'68 7.6
2014-Aug-30 16:29N 53°39' E 005°51'8 8.7
2014-Aug-30 15:33N 53°36' E 005°38'9 8.6
2014-Aug-30 14:34N 53°33' E 005°25'9 8.8
2014-Aug-30 13:34N 53°31' E 005°11'9 9.2
2014-Aug-30 12:34N 53°27' E 004°56'8 8.5
2014-Aug-30 11:33N 53°24' E 004°44'33 8.3
2014-Aug-30 07:33N 52°54' E 004°18'9 9.3
2014-Aug-30 06:33N 52°47' E 004°09'1010.1
2014-Aug-30 05:33N 52°38' E 003°60'1110.4
2014-Aug-30 04:32N 52°28' E 003°55'1010.0
2014-Aug-30 03:32N 52°18' E 003°52'9 9.1
2014-Aug-30 02:33N 52°10' E 003°54'8 7.7
2014-Aug-30 01:33N 52°02' E 003°55'1010.2
2014-Aug-30 00:33N 51°57' E 004°10'10 9.7
2014-Aug-29 23:33N 51°51' E 004°22'9 9.2
2014-Aug-29 22:33N 51°48' E 004°36'7 6.9
2014-Aug-29 21:33N 51°41' E 004°36'0 0.0
2014-Aug-29 20:24N 51°41' E 004°36'0 0.0
2014-Aug-29 19:18N 51°41' E 004°36'0 0.0
2014-Aug-29 18:33N 51°41' E 004°36'0 0.0
2014-Aug-29 13:24N 51°41' E 004°36'0 0.0
2014-Aug-29 12:30N 51°41' E 004°36'0 0.0
2014-Aug-29 11:18N 51°41' E 004°36'0 0.0
2014-Aug-29 10:33N 51°41' E 004°36'0 0.0
2014-Aug-29 09:24N 51°41' E 004°36'0 0.0
2014-Aug-29 08:33N 51°41' E 004°36'5 4.6
2014-Aug-29 07:34N 51°46' E 004°38'8 8.1
2014-Aug-29 06:34N 51°50' E 004°26'9 8.7
2014-Aug-29 05:34N 51°55' E 004°15'1110.6
2014-Aug-29 04:33N 51°60' E 003°60'9 9.5
2014-Aug-29 03:33N 52°04' E 003°46'4 1.5
2014-Aug-29 01:08N 52°08' E 003°44'0 0.0
2014-Aug-28 19:29N 52°08' E 003°44'0 0.0
2014-Aug-28 10:29N 52°08' E 003°44'0 0.0
2014-Aug-28 08:26N 52°08' E 003°43'0 0.0
2014-Aug-28 07:08N 52°08' E 003°44'0 0.0
2014-Aug-28 06:29N 52°08' E 003°44'0 0.0
2014-Aug-28 04:11N 52°08' E 003°44'0 0.0
2014-Aug-28 03:20N 52°08' E 003°44'0 0.0
2014-Aug-28 02:23N 52°08' E 003°44'0 0.0
2014-Aug-28 01:32N 52°08' E 003°44'0 0.1
2014-Aug-28 00:26N 52°08' E 003°43'0 0.0
2014-Aug-27 23:26N 52°08' E 003°44'0 0.0
2014-Aug-27 22:23N 52°08' E 003°44'0 0.0
2014-Aug-27 21:29N 52°08' E 003°44'0 0.0
2014-Aug-27 20:32N 52°08' E 003°44'0 0.0
2014-Aug-27 19:26N 52°08' E 003°44'0 0.0
2014-Aug-27 18:29N 52°08' E 003°44'0 0.1
2014-Aug-27 17:20N 52°08' E 003°44'0 0.0
2014-Aug-27 12:17N 52°08' E 003°44'0 0.0
2014-Aug-27 06:29N 52°08' E 003°43'2 1.8
2014-Aug-27 05:33N 52°09' E 003°43'8 8.3
2014-Aug-27 04:33N 52°17' E 003°47'8 8.0
2014-Aug-27 03:33N 52°25' E 003°50'7 7.1
2014-Aug-27 02:33N 52°31' E 003°55'9 8.9
2014-Aug-27 01:33N 52°31' E 004°09'1010.0
2014-Aug-27 00:33N 52°29' E 004°25'7 6.8
2014-Aug-26 23:33N 52°28' E 004°36'9 8.7
2014-Aug-26 22:34N 52°25' E 004°50'2 1.7
2014-Aug-26 21:32N 52°24' E 004°52'0 0.0
2014-Aug-26 20:32N 52°24' E 004°52'0 0.0
2014-Aug-26 19:32N 52°24' E 004°52'0 0.0
2014-Aug-26 18:29N 52°24' E 004°52'0 0.0
2014-Aug-26 17:32N 52°24' E 004°52'0 0.0
2014-Aug-26 16:29N 52°24' E 004°52'0 0.0
2014-Aug-26 15:32N 52°24' E 004°52'0 0.0
2014-Aug-26 14:32N 52°24' E 004°52'0 0.1
2014-Aug-26 13:32N 52°24' E 004°52'0 0.0
2014-Aug-26 12:32N 52°24' E 004°52'0 0.0
2014-Aug-26 11:32N 52°24' E 004°52'0 0.0
2014-Aug-26 10:29N 52°24' E 004°52'0 0.0
2014-Aug-26 09:33N 52°24' E 004°52'0 0.0
2014-Aug-26 08:31N 52°24' E 004°52'0 0.0
2014-Aug-26 07:31N 52°24' E 004°52'0 0.0
2014-Aug-26 06:31N 52°24' E 004°52'0 0.0
2014-Aug-26 05:31N 52°24' E 004°52'0 0.0
2014-Aug-26 04:31N 52°24' E 004°52'0 0.0
2014-Aug-26 03:33N 52°24' E 004°52'0 0.0
2014-Aug-26 02:33N 52°24' E 004°52'0 0.0
2014-Aug-26 01:33N 52°24' E 004°52'0 0.0
2014-Aug-26 00:33N 52°24' E 004°52'0 0.0
2014-Aug-25 23:33N 52°24' E 004°52'0 0.1
2014-Aug-25 22:33N 52°24' E 004°52'0 0.0
2014-Aug-25 21:33N 52°24' E 004°52'0 0.0
2014-Aug-25 20:30N 52°24' E 004°52'0 0.0
2014-Aug-25 19:30N 52°24' E 004°52'0 0.0
2014-Aug-25 18:33N 52°24' E 004°52'0 0.0
2014-Aug-25 17:33N 52°24' E 004°52'0 0.0
2014-Aug-25 16:33N 52°24' E 004°52'0 0.0
2014-Aug-25 15:33N 52°24' E 004°52'0 0.0
2014-Aug-25 14:33N 52°24' E 004°52'0 0.0
2014-Aug-25 13:33N 52°24' E 004°52'0 0.0
2014-Aug-25 12:33N 52°24' E 004°52'0 0.0
2014-Aug-25 11:33N 52°24' E 004°52'0 0.0
2014-Aug-25 10:33N 52°24' E 004°52'0 0.0
2014-Aug-25 09:30N 52°24' E 004°52'0 0.0
2014-Aug-25 08:33N 52°24' E 004°52'0 0.0
2014-Aug-25 07:33N 52°24' E 004°52'0 0.2
2014-Aug-25 06:33N 52°24' E 004°52'0 0.0
2014-Aug-25 05:33N 52°24' E 004°52'0 0.0
2014-Aug-25 04:33N 52°24' E 004°52'0 0.0
2014-Aug-25 03:33N 52°24' E 004°52'0 0.0
2014-Aug-25 02:33N 52°24' E 004°52'0 0.0
2014-Aug-25 01:33N 52°24' E 004°52'0 0.0
2014-Aug-25 00:33N 52°24' E 004°52'0 0.0
2014-Aug-24 23:33N 52°24' E 004°52'0 0.0
2014-Aug-24 22:33N 52°24' E 004°52'0 0.0
2014-Aug-24 21:33N 52°24' E 004°52'0 0.0
2014-Aug-24 20:33N 52°24' E 004°52'0 0.0
2014-Aug-24 19:33N 52°24' E 004°52'0 0.0
2014-Aug-24 18:33N 52°24' E 004°52'0 0.0
2014-Aug-24 17:33N 52°24' E 004°52'0 0.0
2014-Aug-24 16:33N 52°24' E 004°52'0 0.0
2014-Aug-24 15:33N 52°24' E 004°52'0 0.0
2014-Aug-24 14:30N 52°24' E 004°52'0 0.0
2014-Aug-24 13:33N 52°24' E 004°52'0 0.0
2014-Aug-24 12:33N 52°24' E 004°52'0 0.0
2014-Aug-24 11:33N 52°24' E 004°52'0 0.0
2014-Aug-24 10:30N 52°24' E 004°52'0 0.0
2014-Aug-24 09:33N 52°24' E 004°52'0 0.0
2014-Aug-24 08:33N 52°24' E 004°52'0 0.0
2014-Aug-24 07:33N 52°24' E 004°52'0 0.0
2014-Aug-24 06:33N 52°24' E 004°52'0 0.0
2014-Aug-24 05:33N 52°24' E 004°52'0 0.0
2014-Aug-24 04:33N 52°24' E 004°52'0 0.0
2014-Aug-24 03:33N 52°24' E 004°52'0 0.0
2014-Aug-24 02:33N 52°24' E 004°52'0 0.0
2014-Aug-24 01:33N 52°24' E 004°52'  

Dump ship's entire track history